CZ-6A DEB

Satellite information

Favourite Embed

Satellite Type and Status

DEBRISIN ORBIT

Key statistics

Satellite CZ-6A DEB at a glance.

Uptime

914

Days in orbit

Revolutions

≈ 14.1

Per day

Orbit

SSO

Sun Synchronous Orbit

Inclination

99.0

Latest

Satellite identification and parameters

Extended collection of information and parameters for CZ-6A DEB.

Object identification

Identified? True

Debris? True

Object name: CZ-6A DEB

International designator: 2022-151YS

Object number (NORAD): 55544

Object ID (CCSDS): 55544

Country: PEOPLES REPUBLIC OF CHINA (PRC)

Current information (Y/N): Y

RCS size: SMALL

Orbital parameters

Period: 102.427 minutes

Inclination: 98.9531 deg

SMA: 7251.636 km

Apoapsis: 932.839 km

Periapsis: 814.163 km

RAAN: 138.4914 deg

Eccentricy: 0.0081827

Argument of periapsis: 60.3099 deg

Mean anomaly: 300.6184 deg

Mean motion: 14.05881714 rev/day

Mean motion (dot): 0.00001691 rev/day2

B* drag term: 0.0010286 1/REarth

Two-line elements (TLE)

Creation date: May 12, 2025, 7:26 a.m.

Reference frame: TEME

Reference center: EARTH

Epoch: May 11, 2025, 11:06 p.m. UTC

TLE line 0: 0 CZ-6A DEB

TLE line 1: 1 55544U 22151YS 25131.96280692 .00001691 00000-0 10286-2 0 9994

TLE line 2: 2 55544 98.9531 138.4914 0081827 60.3099 300.6184 14.05881714122425

Live tracking on map

Real-time ground track for satellite CZ-6A DEB.

In-orbit conjunctions

A list of the most updated potential collisions computed for object CZ-6A DEB.

Target Orbit TCA Probability of collision Miss distance Type
COSMOS 860 LEO 2024-09-06 09:37:20 0.0007099571 463.0 (m) PAYLOAD

Associated space launch

Chinese satellite reported for atmospheric/ocean/environmental/spatial parameter research purposes, details TBD.

CZ-6A DEB was lifted into orbit during the mission ‘Long March 6A | Yunhai 3’, on board a Long March 6A space rocket.

The launch took place on Nov. 11, 2022, 10:52 p.m. from Launch Complex 9A.

For more information about the launch, click the button.

Launch to space Long March 6A | Yunhai 3
Long March 6A | Yunhai 3

Agency: N/A

Status: Launch Successful

Launch date: Nov. 11, 2022, 10:52 p.m. UTC

Rocket: Long March 6A

Launch pad: Launch Complex 9A

Location: Taiyuan Satellite Launch Center, People's Republic of China

...

Latest news about this satellite

There are no fresh news available about this satellite. Check back as we update our databases every day.


Newsletter sign-up

Weekly statistics, charts and insights to help you stay on top of the space industry.